• Em Portugal
  • Lista de países
  • Para 7 dias
  • Temperatura da água
  • Mapas de satélite
  • Mapa do tempo
  • Widgets de tempo
  • user-avatar
    Iniciar Sessão

    Previsão horária em Cierznie

    Hoje, 20 Agosto, Segunda-feira

    Tempo Temperatura Precipitação Vento Pressão Humidade
    00:00 +20°C° 0 mm 2 m/s 750 mmHg 61%
    01:00 +20°C° 0 mm 2 m/s 750 mmHg 60%
    02:00 +19°C° 0 mm 2 m/s 749 mmHg 60%
    03:00 +19°C° 0 mm 2 m/s 749 mmHg 61%
    04:00 +19°C° 0 mm 2 m/s 749 mmHg 62%
    05:00 +19°C° 0 mm 3 m/s 749 mmHg 62%
    06:00 +20°C° 0 mm 3 m/s 749 mmHg 62%
    07:00 +21°C° 0 mm 4 m/s 749 mmHg 63%
    08:00 +22°C° 0 mm 4 m/s 749 mmHg 61%
    09:00 +23°C° 0 mm 5 m/s 749 mmHg 60%
    10:00 +26°C° 0 mm 5 m/s 749 mmHg 58%
    11:00 +25°C° 0,1 mm 5 m/s 749 mmHg 60%
    12:00 +25°C° 0,1 mm 5 m/s 749 mmHg 61%
    13:00 +25°C° 0,1 mm 5 m/s 749 mmHg 63%
    14:00 +23°C° 0,1 mm 5 m/s 749 mmHg 65%
    15:00 +23°C° 0,1 mm 5 m/s 749 mmHg 68%
    16:00 +22°C° 0,1 mm 5 m/s 749 mmHg 70%
    17:00 +21°C° 0,1 mm 5 m/s 749 mmHg 74%
    18:00 +21°C° 0,1 mm 4 m/s 749 mmHg 78%
    19:00 +20°C° 0,1 mm 4 m/s 749 mmHg 81%
    20:00 +19°C° 0 mm 4 m/s 749 mmHg 82%
    21:00 +18°C° 0 mm 3 m/s 749 mmHg 83%
    22:00 +17°C° 0 mm 3 m/s 749 mmHg 83%
    23:00 +17°C° 0 mm 3 m/s 750 mmHg 82%

    Amanhã, 21 Agosto, Terça-feira

    Tempo Temperatura Precipitação Vento Pressão Humidade
    00:00 +16°C° 0 mm 3 m/s 750 mmHg 81%
    01:00 +16°C° 0 mm 3 m/s 750 mmHg 80%
    02:00 +14°C° 0 mm 3 m/s 750 mmHg 81%
    03:00 +14°C° 0 mm 3 m/s 750 mmHg 83%
    04:00 +13°C° 0 mm 3 m/s 751 mmHg 84%
    05:00 +14°C° 0 mm 3 m/s 751 mmHg 80%
    06:00 +15°C° 0 mm 4 m/s 752 mmHg 76%
    07:00 +17°C° 0 mm 4 m/s 752 mmHg 72%
    08:00 +18°C° 0 mm 4 m/s 753 mmHg 65%
    09:00 +20°C° 0 mm 4 m/s 753 mmHg 59%
    10:00 +21°C° 0 mm 4 m/s 753 mmHg 52%
    11:00 +22°C° 0 mm 3 m/s 753 mmHg 49%
    12:00 +24°C° 0 mm 3 m/s 753 mmHg 45%
    13:00 +24°C° 0 mm 3 m/s 754 mmHg 42%
    14:00 +24°C° 0 mm 3 m/s 754 mmHg 42%
    15:00 +24°C° 0 mm 3 m/s 753 mmHg 43%
    16:00 +24°C° 0 mm 3 m/s 753 mmHg 43%
    17:00 +22°C° 0 mm 3 m/s 754 mmHg 50%
    18:00 +20°C° 0 mm 2 m/s 754 mmHg 56%
    19:00 +18°C° 0 mm 2 m/s 754 mmHg 63%
    20:00 +17°C° 0 mm 2 m/s 754 mmHg 67%
    21:00 +16°C° 0 mm 2 m/s 754 mmHg 71%
    22:00 +15°C° 0 mm 2 m/s 755 mmHg 75%
    23:00 +15°C° 0 mm 2 m/s 755 mmHg 78%

    Depois de amanhã, 22 Agosto, Quarta-feira

    Tempo Temperatura Precipitação Vento Pressão Humidade
    00:00 +14°C° 0 mm 2 m/s 755 mmHg 81%
    01:00 +14°C° 0 mm 2 m/s 755 mmHg 83%
    02:00 +14°C° 0 mm 2 m/s 755 mmHg 85%
    03:00 +14°C° 0 mm 2 m/s 755 mmHg 87%
    04:00 +13°C° 0 mm 2 m/s 755 mmHg 89%
    05:00 +14°C° 0 mm 2 m/s 755 mmHg 84%
    06:00 +16°C° 0 mm 2 m/s 755 mmHg 79%
    07:00 +17°C° 0 mm 3 m/s 755 mmHg 73%
    08:00 +19°C° 0 mm 3 m/s 755 mmHg 66%
    09:00 +21°C° 0 mm 3 m/s 755 mmHg 58%
    10:00 +24°C° 0 mm 3 m/s 755 mmHg 51%
    11:00 +25°C° 0 mm 3 m/s 754 mmHg 46%
    12:00 +26°C° 0 mm 3 m/s 754 mmHg 42%
    13:00 +27°C° 0 mm 3 m/s 753 mmHg 38%
    14:00 +27°C° 0 mm 3 m/s 753 mmHg 38%
    15:00 +27°C° 0 mm 3 m/s 753 mmHg 38%
    16:00 +27°C° 0 mm 3 m/s 752 mmHg 38%
    17:00 +26°C° 0 mm 2 m/s 752 mmHg 43%
    18:00 +24°C° 0 mm 2 m/s 752 mmHg 49%
    19:00 +21°C° 0 mm 2 m/s 751 mmHg 54%
    20:00 +21°C° 0 mm 2 m/s 751 mmHg 56%
    21:00 +20°C° 0 mm 2 m/s 751 mmHg 58%
    22:00 +19°C° 0 mm 3 m/s 751 mmHg 59%
    23:00 +19°C° 0 mm 3 m/s 751 mmHg 58%

    23 Agosto, Quinta-feira

    Tempo Temperatura Precipitação Vento Pressão Humidade
    00:00 +19°C° 0 mm 3 m/s 751 mmHg 57%
    01:00 +20°C° 0 mm 3 m/s 751 mmHg 56%
    02:00 +20°C° 0 mm 3 m/s 750 mmHg 57%
    03:00 +19°C° 0 mm 3 m/s 750 mmHg 58%
    04:00 +19°C° 0 mm 3 m/s 750 mmHg 58%
    05:00 +19°C° 0,1 mm 2 m/s 750 mmHg 62%
    06:00 +19°C° 0,1 mm 2 m/s 750 mmHg 65%
    07:00 +19°C° 0,1 mm 2 m/s 749 mmHg 69%
    08:00 +20°C° 0,1 mm 2 m/s 749 mmHg 66%
    09:00 +21°C° 0,1 mm 2 m/s 749 mmHg 64%
    10:00 +23°C° 0,1 mm 2 m/s 749 mmHg 62%
    11:00 +25°C° 0 mm 3 m/s 749 mmHg 57%
    12:00 +27°C° 0 mm 3 m/s 749 mmHg 52%
    13:00 +28°C° 0 mm 3 m/s 748 mmHg 47%
    14:00 +28°C° 0 mm 2 m/s 748 mmHg 48%
    15:00 +28°C° 0 mm 2 m/s 748 mmHg 49%
    16:00 +28°C° 0 mm 1 m/s 747 mmHg 50%
    17:00 +27°C° 0 mm 1 m/s 747 mmHg 54%
    18:00 +26°C° 0 mm 1 m/s 747 mmHg 57%
    19:00 +25°C° 0 mm 1 m/s 746 mmHg 61%
    20:00 +24°C° 0 mm 2 m/s 746 mmHg 62%
    21:00 +24°C° 0 mm 2 m/s 746 mmHg 62%
    22:00 +24°C° 0 mm 2 m/s 746 mmHg 63%
    23:00 +23°C° 0 mm 2 m/s 746 mmHg 63%

    24 Agosto, Sexta-feira

    Tempo Temperatura Precipitação Vento Pressão Humidade
    00:00 +22°C° 0 mm 3 m/s 745 mmHg 63%
    01:00 +22°C° 0 mm 3 m/s 745 mmHg 64%
    02:00 +21°C° 0 mm 3 m/s 744 mmHg 67%
    03:00 +20°C° 0 mm 2 m/s 744 mmHg 71%
    04:00 +20°C° 0 mm 2 m/s 744 mmHg 74%
    05:00 +20°C° 0,2 mm 2 m/s 743 mmHg 76%
    06:00 +21°C° 0,2 mm 2 m/s 743 mmHg 77%
    07:00 +21°C° 0,2 mm 2 m/s 743 mmHg 78%
    08:00 +24°C° 0,2 mm 2 m/s 743 mmHg 73%
    09:00 +26°C° 0,2 mm 3 m/s 743 mmHg 68%
    10:00 +27°C° 0,2 mm 3 m/s 743 mmHg 63%
    11:00 +28°C° 0,8 mm 3 m/s 743 mmHg 59%
    12:00 +29°C° 0,8 mm 3 m/s 742 mmHg 56%
    13:00 +30°C° 0,8 mm 3 m/s 742 mmHg 52%
    14:00 +30°C° 0,1 mm 3 m/s 742 mmHg 51%
    15:00 +30°C° 0,1 mm 3 m/s 742 mmHg 51%
    16:00 +30°C° 0,1 mm 3 m/s 742 mmHg 51%
    17:00 +28°C° 0,3 mm 3 m/s 742 mmHg 57%
    18:00 +26°C° 0,3 mm 3 m/s 742 mmHg 63%
    19:00 +25°C° 0,3 mm 3 m/s 742 mmHg 70%
    20:00 +22°C° 1,1 mm 3 m/s 742 mmHg 76%
    21:00 +21°C° 1,1 mm 4 m/s 742 mmHg 82%
    22:00 +20°C° 1,1 mm 4 m/s 742 mmHg 88%
    23:00 +19°C° 0,3 mm 4 m/s 743 mmHg 90%

    25 Agosto, Sábado

    Tempo Temperatura Precipitação Vento Pressão Humidade
    00:00 +18°C° 0,3 mm 3 m/s 743 mmHg 91%
    01:00 +18°C° 0,3 mm 3 m/s 743 mmHg 93%
    02:00 +17°C° 0,1 mm 3 m/s 743 mmHg 91%
    03:00 +17°C° 0,1 mm 4 m/s 743 mmHg 89%
    04:00 +17°C° 0,1 mm 4 m/s 744 mmHg 87%
    05:00 +17°C° 0,1 mm 4 m/s 744 mmHg 86%
    06:00 +17°C° 0,1 mm 4 m/s 744 mmHg 84%
    07:00 +17°C° 0,1 mm 4 m/s 745 mmHg 83%
    08:00 +15°C° 0,5 mm 4 m/s 745 mmHg 84%
    09:00 +15°C° 0,5 mm 4 m/s 745 mmHg 85%
    10:00 +15°C° 0,5 mm 4 m/s 746 mmHg 87%
    11:00 +15°C° 0,5 mm 4 m/s 746 mmHg 86%
    12:00 +15°C° 0,5 mm 4 m/s 746 mmHg 85%
    13:00 +15°C° 0,5 mm 4 m/s 747 mmHg 84%
    14:00 +16°C° 0 mm 3 m/s 747 mmHg 82%
    15:00 +16°C° 0 mm 3 m/s 747 mmHg 80%
    16:00 +16°C° 0 mm 3 m/s 747 mmHg 77%
    17:00 +16°C° 0 mm 2 m/s 747 mmHg 79%
    18:00 +16°C° 0 mm 2 m/s 747 mmHg 80%
    19:00 +15°C° 0 mm 2 m/s 747 mmHg 81%
    20:00 +15°C° 0 mm 2 m/s 747 mmHg 82%
    21:00 +15°C° 0 mm 2 m/s 747 mmHg 82%
    22:00 +14°C° 0 mm 2 m/s 747 mmHg 83%
    23:00 +14°C° 0,6 mm 2 m/s 747 mmHg 85%
    Mostrar mais